Home > Weather > Chengdu > Past weeks

Flag for China Weather for the Past 2 Weeks in Chengdu, Sichuan, China

Now
70 °F

Clear.


Feels Like: 70 °F
Forecast: 65 / 88 °F
Wind: No wind

Location: Chengdu Airport

Current Time: May 3, 2016 at 5:28:13 AM

Latest Report: May 3, 2016 at 5:00 AM


Visibility: 10 mi

Pressure: 29.86 "Hg

Humidity: 64%

Dew Point: 57 °F

Location of ChengduLocation

Historic Weather in Chengdu — Graph

°F

Chengdu Temperature Yesterday

Maximum temperature yesterday: 84 °F (at 3:00 PM)
Minimum temperature yesterday: 66 °F (at 5:00 AM)
Average temperature yesterday: 75 °F

High & Low Weather Summary for the Past Weeks

 TemperatureHumidityPressure
High84 °F (May 1, 4:00 PM)100% (Apr 18, 5:00 AM)30.07 "Hg (Apr 18, 5:00 AM)
Low54 °F (Apr 18, 5:00 AM)34% (Apr 20, 4:00 PM)29.59 "Hg (May 1, 4:00 PM)
Average68 °F73%29.89 "Hg
* Reported Apr 18 4:00 AM — May 3 4:00 AM, Chengdu, Weather by CustomWeather, © 2016

Note: Actual official high and low records may vary slightly from our data, if they occured in-between our weather recording intervals... More about our weather records

Advertising

Chengdu Weather History for the Previous 24 Hours

Scroll right to see more
 ConditionsComfort  
Time TempWeatherWind HumidityBarometerVisibility
4:00 AM
Tue, May 3
70 °FClear.No wind60%29.89 "Hg10 mi
3:00 AM70 °FClear.1 mph57%29.89 "Hg10 mi
2:00 AM72 °FClear.3 mph53%29.89 "Hg10 mi
1:00 AM72 °FClear.3 mph65%29.92 "Hg10 mi
12:00 AM72 °FClear.1 mph65%29.92 "Hg10 mi
11:00 PM
Mon, May 2
73 °FClear.1 mph61%29.92 "Hg10 mi
10:00 PM75 °FClear.8 mph54%29.92 "Hg10 mi
9:00 PM75 °FClear.3 mph61%29.89 "Hg10 mi
8:00 PM77 °FPassing clouds.3 mph57%29.83 "HgN/A
7:00 PM82 °FSunny.1 mph42%29.80 "Hg10 mi
6:00 PM82 °FSunny.No wind42%29.77 "Hg10 mi
5:00 PM84 °FSunny.1 mph37%29.77 "Hg10 mi
4:00 PM82 °FPassing clouds.3 mph37%29.77 "HgN/A
3:00 PM84 °FClear.1 mph48%29.80 "Hg4 mi
2:00 PM81 °FHaze.3 mph58%29.83 "Hg2 mi
1:00 PM77 °FFog.1 mph69%29.86 "Hg2 mi
12:00 PM75 °FFog.No wind69%29.86 "Hg2 mi
11:00 AM73 °FFog.6 mph78%29.86 "Hg1 mi
10:00 AM73 °FFog.1 mph78%29.86 "Hg2 mi
9:00 AM73 °FFog.No wind74%29.86 "Hg2 mi
8:00 AM72 °FFog.1 mph78%29.80 "Hg2 mi
7:00 AM68 °FFog.1 mph94%29.77 "Hg1 mi
6:00 AM66 °FFog.No wind100%29.74 "Hg3 mi
5:00 AM66 °FFog.No wind94%29.68 "Hg3 mi
Weather by CustomWeather, © 2016

See weather overviewHow to use our weather pages